Wind_Speed
23 25 27 28 27 26 24 23 23 24 23 21 21 20 20 19 18 18 17 16 16 17 16 15 14 13 12 11 9 7 6 5 4 3 2 2 1 0 1 2 3 4 5 6 6 7 7 6 5 5 5 3 1 0 0 1 2 2 3 3 4 4 4 4 5 5 5 5 6 6 6 6 7 8 9 11 12 12 11 9 7 7 10 12 13
22 25 27 28 28 27 26 25 24 25 24 23 22 21 21 20 20 19 18 18 19 19 18 17 16 15 14 12 10 9 7 6 5 4 3 3 2 2 2 2 3 3 4 5 5 5 5 5 4 5 5 4 2 1 0 1 2 3 3 4 4 3 3 4 4 4 4 4 4 4 4 5 6 8 11 12 13 11 10 10 9 9 10 12 13
20 24 26 27 28 29 28 27 25 25 25 24 23 22 22 22 21 20 20 20 20 21 20 19 18 17 16 14 12 11 9 8 7 6 5 4 3 4 4 3 3 3 4 4 4 4 4 4 3 3 3 3 2 1 0 1 2 3 4 4 3 3 3 3 3 3 3 3 2 1 2 5 7 8 9 10 10 9 9 9 10 12 13 14 14
16 20 24 26 28 29 29 29 27 26 25 25 24 24 23 23 22 21 21 21 22 22 22 21 20 19 18 16 15 13 11 10 8 8 7 6 4 5 5 5 4 4 4 4 4 4 3 2 2 1 1 2 2 1 1 2 3 4 4 4 3 3 3 3 2 2 2 2 1 0 2 4 5 6 8 9 8 8 8 8 11 13 14 16 17
14 16 20 24 26 27 29 29 29 27 26 26 26 25 25 24 23 22 21 22 23 23 23 22 22 21 20 19 17 15 13 12 10 9 9 8 6 5 6 6 5 5 4 4 4 4 3 2 1 0 1 2 1 1 2 3 4 4 5 5 4 3 2 2 2 2 2 2 2 1 1 4 5 7 10 11 8 6 6 8 11 13 14 17 18
14 14 16 19 23 25 27 28 29 29 28 27 27 27 26 25 25 24 23 23 23 24 24 23 23 23 22 21 20 17 15 14 12 11 11 10 8 7 7 7 6 6 5 4 4 5 4 3 2 1 3 3 3 3 3 4 5 6 6 6 6 5 4 3 2 3 3 4 3 1 2 4 6 8 12 12 7 3 4 7 11 12 14 16 17
15 15 14 15 17 21 24 26 28 29 29 29 29 29 28 27 26 25 25 24 24 24 25 25 25 25 24 22 21 19 17 16 14 13 12 12 11 9 8 7 7 7 6 5 5 5 5 4 3 3 4 5 6 6 5 5 6 7 8 8 8 7 6 5 4 4 5 5 4 4 4 5 6 6 10 11 6 3 4 7 10 12 12 14 16
15 15 15 13 13 16 21 24 26 28 29 29 30 30 30 28 27 27 27 26 25 25 25 26 26 26 25 24 22 21 19 17 16 15 14 13 13 11 9 9 8 7 7 7 6 6 6 5 4 5 5 6 7 8 7 7 7 7 8 9 10 10 9 8 7 7 7 7 7 6 6 6 5 5 7 8 6 5 5 7 9 10 11 13 16
17 16 15 13 12 14 17 20 23 25 27 28 29 30 30 30 29 28 28 27 26 26 26 27 27 26 26 25 23 22 20 19 18 17 16 15 14 13 11 10 10 9 8 8 7 7 7 7 6 6 6 7 8 9 9 9 9 8 9 10 11 12 11 11 10 9 9 9 9 8 8 8 6 6 7 8 8 7 7 7 9 11 11 13 16
18 17 15 15 14 14 15 16 18 21 24 26 27 28 29 30 30 30 30 29 28 28 27 28 27 27 27 26 24 23 22 21 20 19 18 16 15 15 13 12 11 10 10 9 9 9 9 9 8 7 7 8 8 9 10 11 11 10 10 10 12 13 14 13 12 11 11 11 11 10 10 9 8 8 8 8 9 10 9 8 9 11 12 12 15
20 18 17 17 16 15 15 15 14 16 19 22 25 26 27 29 29 30 31 31 31 30 29 28 28 28 27 27 25 23 23 22 22 21 19 18 16 16 15 14 12 11 11 10 10 10 10 10 10 9 8 8 9 10 11 12 12 12 11 11 12 13 15 16 15 13 12 13 13 13 11 11 11 10 10 10 11 12 10 9 10 11 12 13 13
21 20 18 18 18 16 16 15 13 13 15 18 21 23 25 26 28 28 30 32 33 32 30 29 28 29 29 28 26 25 24 24 23 22 21 19 18 17 17 16 15 13 12 11 11 11 11 11 11 10 10 9 9 10 11 12 13 13 13 12 12 13 15 17 17 16 14 14 14 14 13 12 13 13 12 12 13 13 12 10 11 12 14 14 14
22 22 20 19 18 17 17 16 14 13 14 15 18 21 22 23 25 26 28 30 33 33 31 30 30 30 30 29 28 27 26 25 24 24 22 20 19 18 18 17 16 15 14 13 12 12 12 12 12 12 12 11 10 10 11 12 14 14 14 14 14 15 16 17 18 17 16 16 15 16 15 13 14 15 14 13 13 14 13 12 13 14 15 16 16
23 23 22 20 18 18 18 18 16 15 14 14 16 18 20 22 23 25 26 28 30 32 32 31 31 31 30 30 30 29 28 27 26 25 24 22 21 19 19 18 18 17 16 15 14 14 13 13 13 13 13 12 11 11 11 12 14 14 15 15 16 17 17 18 19 19 18 17 17 17 17 15 15 16 16 15 15 14 14 14 15 16 17 18 18
24 24 23 21 19 18 19 19 18 17 15 14 15 16 18 20 22 24 25 26 28 30 31 32 31 31 31 31 31 31 30 29 28 27 26 24 22 21 19 19 19 19 18 18 17 16 14 14 13 13 14 14 14 12 12 12 14 15 15 16 18 19 19 19 20 20 20 19 18 18 18 16 16 17 17 17 16 15 15 16 17 18 19 19 19
25 25 24 23 21 19 19 20 20 19 17 15 15 16 18 19 20 22 24 25 26 28 30 31 31 31 32 31 31 31 31 30 29 28 28 26 23 21 20 20 20 21 21 20 19 18 16 15 14 14 14 15 15 14 13 13 14 15 16 17 18 20 21 21 22 22 22 21 21 20 19 18 18 18 19 19 17 17 17 18 20 21 21 21 21
25 25 25 25 22 21 20 21 22 21 19 16 16 17 18 19 20 21 23 24 25 26 28 30 30 31 31 31 31 31 31 31 30 30 29 27 24 22 21 21 21 22 22 22 20 19 18 17 16 15 15 16 17 16 15 14 14 15 16 17 19 20 21 23 23 24 23 23 23 22 20 19 18 19 20 20 19 19 19 20 21 22 22 22 23
25 24 26 26 24 23 22 22 23 23 21 19 18 18 19 19 20 21 22 23 24 25 27 29 30 30 30 31 31 31 31 31 30 30 30 28 25 23 21 21 22 23 23 22 22 21 20 19 18 17 16 17 18 17 16 15 15 15 17 18 19 20 22 24 24 25 25 25 24 23 21 19 19 20 21 21 20 21 21 21 22 22 22 23 24
26 25 26 27 26 25 24 24 24 25 24 21 20 20 21 20 21 21 22 23 24 25 26 28 28 29 29 30 30 30 30 30 29 29 29 28 26 24 22 22 22 22 23 23 23 23 21 21 20 18 17 18 18 18 18 17 16 16 18 19 20 21 23 24 24 25 26 26 25 25 22 20 21 22 22 22 22 23 23 23 23 23 23 24 24
29 27 27 27 27 26 26 25 25 25 25 24 22 21 22 22 22 22 23 23 23 23 25 26 27 27 28 29 29 29 28 28 27 28 28 28 27 25 23 21 21 22 23 24 24 23 22 22 21 20 19 18 18 18 18 18 18 18 19 19 20 21 23 23 23 24 25 26 25 24 22 22 22 23 23 23 23 25 26 26 25 25 25 25 25
33 30 28 29 29 28 27 27 26 26 27 25 23 22 22 22 22 22 23 24 23 22 23 23 25 25 26 27 27 27 27 27 26 27 27 27 26 25 22 20 21 22 23 24 24 24 23 23 22 22 20 19 18 18 19 20 20 20 20 21 21 21 23 23 22 22 23 24 24 24 23 23 24 25 24 23 23 25 27 27 27 27 27 26 26
37 33 31 31 31 29 29 28 27 27 28 26 23 22 23 23 23 23 23 24 23 22 21 22 23 24 24 25 25 25 25 26 25 25 26 25 25 23 21 20 21 22 23 24 24 24 24 24 23 22 21 19 18 18 19 21 22 22 22 22 22 22 23 22 21 21 22 22 22 23 23 23 25 27 27 25 26 27 27 27 28 28 27 27 28
41 37 35 34 33 31 31 29 28 28 29 27 24 23 23 23 23 24 24 23 22 21 21 21 22 23 23 24 24 24 25 25 24 24 24 24 24 23 21 21 21 22 23 23 24 25 24 23 22 21 20 20 20 19 20 22 23 23 24 24 23 23 23 23 22 22 22 23 23 23 23 24 26 28 28 28 29 30 29 29 29 29 28 28 29
44 41 38 36 35 34 33 31 29 29 29 27 25 24 23 24 24 24 24 23 21 21 21 21 22 22 22 23 23 24 24 24 24 24 23 23 24 23 22 21 21 22 22 23 23 23 21 20 20 19 20 21 21 20 20 21 22 23 24 24 24 23 24 24 24 24 24 24 24 25 25 26 28 28 28 30 31 30 30 31 30 30 30 30 31
47 45 41 39 37 37 36 33 31 31 30 27 25 24 24 24 24 25 24 22 21 21 22 22 22 22 22 22 22 23 24 23 23 23 24 24 24 23 23 22 21 21 21 21 20 18 18 18 19 19 19 19 19 19 18 19 20 21 22 23 24 24 25 25 26 27 27 27 28 29 30 30 29 29 31 33 32 31 32 32 31 31 32 33 33
49 47 44 42 40 39 38 36 34 33 31 28 26 25 24 24 24 24 23 22 22 23 23 23 23 22 22 22 23 23 24 24 24 24 25 25 24 24 23 21 20 18 18 17 16 15 16 17 17 16 14 14 14 14 14 15 16 17 18 20 21 23 24 25 27 28 28 30 32 34 33 32 30 31 33 34 33 33 33 33 32 33 34 34 35
51 49 46 44 43 41 40 38 37 35 32 29 27 25 24 23 23 23 23 23 23 24 24 24 24 23 23 23 24 25 25 25 25 25 25 25 24 23 22 19 17 15 14 15 15 15 14 14 14 13 12 12 12 12 13 14 15 16 17 19 20 21 22 23 25 27 28 30 32 33 32 31 32 32 33 34 33 34 34 35 35 35 35 36 36
50 48 47 46 45 43 41 39 39 37 34 31 29 26 24 23 22 22 22 23 24 25 26 26 25 25 25 25 26 26 26 26 25 24 24 23 23 21 19 16 15 14 14 14 15 15 14 13 14 14 14 14 15 15 17 18 19 20 21 22 23 24 25 26 27 29 30 30 32 32 32 32 33 33 32 33 33 34 35 36 36 36 37 38 38
49 47 47 47 46 44 42 41 41 39 35 33 30 26 24 23 22 21 22 24 25 26 27 27 27 26 27 27 27 26 25 25 24 22 21 21 21 20 18 16 15 15 15 16 16 15 15 16 17 18 18 18 19 19 20 21 23 24 26 27 28 29 30 31 32 33 33 33 34 35 35 36 37 36 34 33 33 34 37 37 36 36 38 39 39
47 47 47 47 46 44 43 43 42 40 38 34 30 27 26 25 23 22 22 23 26 27 27 27 27 27 27 26 25 24 23 22 22 20 19 20 21 21 20 19 18 18 19 19 19 19 19 19 21 22 21 21 22 22 23 24 25 27 29 30 32 33 34 34 35 36 36 37 38 39 40 41 40 39 37 35 35 37 40 39 37 38 40 40 40
45 46 47 46 45 45 45 45 44 42 39 35 31 29 29 27 24 22 21 23 25 26 26 27 27 27 26 24 23 23 23 23 22 21 21 22 23 23 23 23 23 23 25 25 24 23 23 23 24 25 25 25 25 26 27 28 29 30 32 33 35 37 37 37 37 39 40 42 44 45 45 46 44 41 39 37 38 40 41 39 38 39 40 40 39
45 47 47 46 47 48 49 48 47 44 41 37 33 31 31 29 26 23 21 22 23 24 25 26 26 26 25 24 24 24 25 25 24 24 23 24 24 25 26 26 27 27 29 28 27 27 27 26 27 28 29 29 29 30 31 33 33 33 35 37 38 39 40 41 42 43 46 48 49 47 46 47 47 45 41 39 39 40 39 38 38 39 39 39 39
48 50 51 51 51 53 53 51 49 46 42 37 35 34 32 30 28 25 22 22 23 24 25 26 26 27 26 26 26 26 27 27 27 27 27 26 27 28 29 29 30 31 31 30 30 30 30 31 31 31 33 33 33 34 35 36 37 37 38 39 41 42 43 45 46 47 48 47 46 42 40 42 43 42 38 35 35 37 37 37 37 37 38 38 37
50 52 55 58 58 57 57 54 49 46 43 38 36 36 35 32 30 28 25 24 24 24 25 26 27 28 28 28 28 29 29 29 30 30 30 30 30 31 32 32 33 33 33 33 32 32 33 34 34 35 36 37 38 39 40 40 41 41 41 41 43 44 46 47 47 46 44 42 39 36 36 37 37 36 32 30 32 33 35 35 36 36 37 37 36
50 50 54 60 62 61 58 55 51 47 44 40 38 38 37 35 33 31 29 28 27 26 26 27 28 29 30 31 31 31 31 32 32 32 33 33 33 35 35 35 35 35 35 36 36 35 36 37 37 38 40 40 42 44 44 43 43 43 43 43 44 45 45 45 44 42 40 38 35 33 32 33 33 31 30 30 32 33 34 35 36 37 37 36 37
50 48 51 57 62 62 60 57 53 50 46 43 41 41 39 37 37 36 34 32 30 28 27 28 30 31 33 34 34 35 35 35 36 35 36 36 37 38 38 38 38 38 38 39 39 38 39 39 40 40 41 40 41 41 42 42 44 44 44 44 44 43 43 43 41 38 36 35 34 31 31 31 31 30 30 33 34 35 35 36 37 37 37 37 38
49 49 50 53 58 61 61 58 54 51 48 45 44 43 43 43 43 41 37 33 30 29 29 31 33 34 35 36 37 38 38 39 40 40 40 40 41 41 42 42 42 42 42 42 42 41 41 42 42 41 40 39 39 39 40 42 44 44 43 43 43 41 40 39 37 36 35 34 33 32 32 32 32 32 34 36 36 36 37 38 38 37 38 40 41
47 48 48 50 55 60 61 58 54 51 49 47 45 46 46 46 44 40 35 32 32 32 34 35 36 37 37 36 37 38 39 41 42 43 43 44 45 46 46 46 45 45 44 44 43 42 43 43 43 42 42 41 40 40 41 43 43 42 41 41 41 40 38 36 35 36 37 37 35 34 34 34 35 35 36 37 38 39 40 40 40 40 41 43 44
46 48 46 47 53 60 60 56 52 49 46 44 45 46 46 43 40 39 37 35 35 35 37 38 38 37 37 36 36 37 38 38 40 41 43 44 45 46 45 45 45 44 44 43 43 43 43 43 43 43 43 42 41 41 42 42 41 39 40 40 39 39 37 36 36 39 39 38 36 36 37 38 38 38 38 40 41 43 43 43 43 44 44 44 45
47 49 46 44 50 57 57 53 49 45 42 41 44 45 44 41 39 39 39 37 37 38 39 40 39 38 38 38 38 38 38 39 39 40 41 43 44 44 44 44 45 44 44 43 43 43 43 43 43 42 42 42 41 40 40 40 38 37 38 39 39 38 38 37 37 39 40 39 39 40 40 40 41 41 42 42 43 45 45 46 46 46 46 46 48
46 48 47 44 45 48 49 49 48 43 40 42 44 44 43 42 41 40 39 38 39 41 41 41 41 41 41 40 40 40 40 40 40 40 41 42 42 43 43 43 43 42 41 41 40 40 40 40 40 40 40 40 40 39 39 38 36 37 39 40 39 38 38 38 38 39 40 41 40 40 40 41 43 44 44 45 45 46 46 47 48 49 49 50 51
47 47 46 44 44 44 45 47 46 41 38 40 42 41 40 42 42 41 40 40 41 42 42 42 42 42 42 41 41 40 40 39 39 38 38 38 38 38 38 38 38 37 36 37 37 37 37 37 38 38 38 39 39 39 39 38 38 38 40 41 41 40 40 40 41 41 41 41 41 42 44 46 47 46 46 46 47 47 48 48 50 51 52 53 54
52 50 47 44 44 45 47 46 43 38 36 38 39 38 40 41 41 40 40 41 43 43 43 42 42 42 41 41 40 39 38 37 36 35 34 34 34 34 34 35 35 36 36 37 37 37 37 37 38 38 39 39 41 41 40 40 41 41 42 42 43 42 42 42 43 43 43 44 45 47 49 49 49 48 47 48 49 51 51 52 53 54 55 56 56
55 55 52 48 47 47 48 46 41 37 36 37 38 39 40 41 42 42 42 43 44 44 43 42 42 41 40 39 39 38 37 36 35 34 34 34 34 34 35 37 38 38 38 38 38 38 38 38 39 40 40 40 41 41 41 41 43 44 44 44 45 45 44 44 45 46 46 47 49 50 51 51 50 50 51 52 53 54 55 56 57 57 57 57 57
57 56 54 52 50 48 48 49 47 43 40 40 41 41 41 42 43 43 44 44 44 43 42 42 41 40 39 39 38 38 37 37 37 37 37 36 36 37 38 38 38 38 38 39 40 40 40 42 43 44 43 43 43 44 44 45 46 47 48 48 48 48 48 48 49 50 51 51 52 52 52 53 54 55 55 56 57 58 59 59 57 55 53 53 53
58 56 55 54 52 49 48 49 51 49 47 45 45 44 44 45 45 45 44 44 43 43 42 42 41 41 41 41 40 39 39 39 39 40 40 40 40 40 40 39 39 39 39 39 39 39 40 42 43 43 44 45 45 46 47 49 50 50 51 51 51 52 52 52 53 53 54 54 54 55 55 57 58 58 58 59 60 60 58 54 51 49 48 49 50
57 57 56 56 55 52 51 51 53 53 51 49 47 47 47 48 46 45 45 44 44 44 44 44 44 44 44 43 43 42 42 42 42 42 43 43 44 44 43 43 43 42 42 41 40 40 40 40 40 40 41 42 44 46 48 51 52 52 53 53 53 54 54 54 55 55 56 56 57 58 59 59 60 60 60 60 58 55 50 47 46 47 49 51 52
57 57 57 57 57 55 54 54 56 57 57 54 51 49 49 50 49 47 46 46 46 46 46 47 47 47 46 46 46 46 46 46 46 46 46 46 46 46 46 46 46 46 46 45 45 44 43 43 44 44 45 46 47 49 51 52 52 53 54 54 55 55 56 56 57 58 59 60 60 61 61 61 62 62 62 59 56 52 49 48 49 52 54 55 56
62 60 60 59 58 57 56 56 57 60 62 60 57 53 52 52 52 50 49 49 49 49 49 50 51 51 50 49 49 49 49 50 50 50 49 49 49 49 50 50 51 51 51 51 50 49 48 48 49 51 52 53 54 55 54 54 54 54 54 54 55 56 56 57 59 60 60 61 61 62 63 63 64 63 62 60 59 57 55 54 55 57 58 58 57
66 65 64 63 62 61 60 59 59 62 65 65 60 55 53 52 52 52 52 52 53 53 54 54 55 55 55 54 54 53 53 53 53 54 54 53 53 53 53 54 54 55 55 55 55 54 53 53 53 54 54 55 55 56 56 55 53 53 53 54 55 56 58 59 60 61 62 62 63 64 63 62 61 60 59 59 60 59 58 58 60 61 60 60 60
68 67 67 67 66 65 64 63 63 66 68 66 60 55 53 53 53 53 54 55 57 58 58 58 58 58 59 59 58 58 57 57 57 58 58 58 57 57 57 57 57 58 58 59 59 59 59 58 57 57 56 55 55 53 53 53 54 55 56 57 58 59 60 61 62 62 63 62 61 60 59 58 57 56 55 55 56 58 60 62 64 64 64 64 64
Wind_Direction
228 227 229 232 233 233 230 225 225 227 229 228 225 224 225 223 220 214 211 209 207 208 207 204 203 199 193 191 191 193 199 204 209 214 215 221 235 320 47 51 51 57 58 54 54 56 55 54 46 38 44 55 57 61 110 109 112 106 104 106 104 102 98 91 86 81 75 72 72 70 65 57 49 37 33 39 40 32 27 24 13 358 354 350 346
230 229 229 231 234 236 234 230 227 229 231 232 230 229 228 227 224 217 213 211 210 211 210 208 208 206 201 201 203 208 216 223 235 247 253 262 281 305 339 6 16 29 42 42 43 53 61 62 50 34 38 50 53 48 131 148 141 136 133 132 129 122 112 103 95 87 82 80 81 80 71 60 49 37 30 29 28 22 19 23 21 9 1 358 355
232 232 231 231 233 235 236 234 231 231 233 234 235 234 233 231 228 222 216 214 214 215 214 212 211 211 209 209 211 216 224 231 241 256 266 274 287 298 316 337 348 356 14 23 21 31 52 65 61 37 32 41 42 32 224 200 167 155 158 157 151 145 131 118 110 103 97 100 105 101 67 52 43 29 14 8 14 17 12 12 13 8 4 3 1
235 236 235 234 234 234 236 237 235 234 235 237 238 238 237 237 234 228 221 218 218 218 218 216 215 216 215 216 218 222 228 235 241 255 266 272 280 287 298 314 328 337 348 359 360 360 15 49 73 55 5 22 26 345 240 221 199 179 178 182 178 170 154 137 134 133 135 153 173 157 35 31 28 13 353 345 353 3 1 3 7 6 3 2 2
238 239 239 238 238 237 237 238 238 237 237 238 240 241 240 240 239 236 229 223 222 223 222 220 220 221 221 222 225 227 231 237 243 252 261 266 270 274 280 295 312 323 331 339 340 338 339 350 52 165 256 279 292 263 245 235 222 207 199 203 208 203 186 165 162 174 191 209 216 196 47 22 11 5 358 349 344 348 353 359 4 4 3 360 357
239 242 242 241 242 241 240 241 240 240 239 238 241 242 242 242 242 241 237 231 228 228 227 226 225 226 227 227 229 231 234 240 245 251 259 263 265 266 269 281 298 312 320 329 329 324 320 314 293 219 229 248 255 251 246 242 234 224 216 216 221 225 223 211 204 218 236 248 262 292 12 17 12 12 14 12 8 8 6 1 3 5 3 357 351
241 243 246 246 246 245 244 244 242 242 241 239 240 241 242 243 243 244 242 238 235 233 233 231 230 231 232 232 233 235 237 243 249 255 259 263 265 264 265 274 286 300 311 320 322 316 308 298 280 249 226 232 246 250 247 244 241 236 229 226 226 229 233 235 234 244 258 270 288 310 331 358 5 6 17 23 24 20 9 0 358 360 360 355 348
245 242 242 246 251 251 247 246 245 244 243 242 241 242 242 243 244 245 245 243 241 239 238 237 236 237 238 238 238 238 240 244 252 257 261 264 266 265 266 273 280 290 300 308 312 308 298 288 273 257 238 228 236 246 249 249 247 244 238 233 232 233 235 239 244 252 265 276 289 301 312 331 340 335 356 11 7 343 338 340 342 345 348 346 343
249 243 240 240 249 255 252 249 248 247 247 246 245 244 244 243 244 245 247 246 244 242 242 242 242 242 243 243 242 242 243 247 253 258 261 264 268 269 269 271 276 283 290 296 301 299 294 287 273 259 249 236 233 239 248 251 251 251 247 239 235 236 236 239 245 254 264 272 281 290 298 309 316 316 329 346 346 332 318 316 327 333 336 338 337
248 246 243 241 245 252 255 254 251 250 250 250 248 247 246 245 244 245 247 248 246 244 243 244 245 246 246 247 246 245 246 250 254 258 261 264 268 270 270 269 272 278 284 288 290 290 289 287 279 266 257 249 239 236 242 248 251 254 254 249 241 237 236 239 242 249 259 269 275 281 289 297 301 303 308 317 326 328 315 303 313 324 328 333 333
245 244 242 244 247 250 253 254 252 252 253 252 251 250 249 248 246 244 245 247 248 247 244 244 245 247 248 249 249 248 248 250 255 258 261 264 266 269 270 270 271 275 280 282 283 284 285 284 282 275 266 259 251 241 239 244 250 252 254 255 250 241 237 239 242 245 253 264 272 277 282 289 292 294 297 302 313 323 316 298 300 313 321 324 325
241 240 239 243 248 251 253 252 251 252 253 254 254 252 251 251 249 247 245 247 249 249 247 246 245 246 248 249 249 249 248 250 254 258 260 263 266 267 268 269 271 274 279 280 279 279 280 281 280 277 272 266 261 253 244 242 247 251 253 254 254 247 241 241 243 245 250 259 269 274 277 283 287 289 292 296 307 316 313 297 295 305 314 317 318
238 238 237 239 246 252 254 253 250 250 251 254 255 253 252 252 252 250 247 246 249 250 250 249 247 247 247 249 249 249 249 250 253 256 259 262 265 266 265 266 269 272 276 277 275 274 275 277 278 277 274 272 268 263 254 245 244 248 252 252 253 251 246 243 243 246 251 258 265 271 274 279 284 288 290 293 300 308 308 298 294 301 310 313 315
238 237 235 235 240 247 252 254 252 250 250 252 254 255 252 251 251 251 249 247 248 250 251 250 249 249 248 248 249 250 249 250 253 256 258 261 264 266 265 264 265 268 271 273 273 272 272 274 276 276 275 275 273 268 261 253 245 244 249 252 253 253 250 246 244 246 251 257 262 268 273 279 282 285 288 288 293 302 304 297 293 298 306 310 312
238 236 234 232 233 241 249 253 254 253 252 252 254 255 253 250 250 251 251 249 248 248 249 249 249 250 249 249 249 250 251 252 254 256 258 260 262 263 264 263 262 263 266 270 272 273 273 273 274 276 276 276 275 272 266 260 251 245 246 249 253 255 253 249 247 248 252 256 261 266 272 278 281 283 284 283 286 295 298 295 293 296 301 305 309
239 236 235 231 228 235 245 251 254 254 254 255 256 258 256 252 249 250 250 250 248 248 248 248 248 250 250 249 249 250 252 252 254 257 258 258 260 262 262 261 259 259 262 267 271 273 274 274 273 274 275 275 274 272 269 264 258 251 248 247 250 254 255 252 250 250 252 256 261 264 269 275 279 282 283 281 282 288 292 294 294 294 298 303 307
242 238 237 233 227 231 241 249 254 256 256 258 260 261 260 256 251 249 250 250 249 249 248 247 247 248 249 250 249 249 250 251 252 255 257 258 259 260 260 258 256 257 259 264 269 271 272 273 273 273 274 273 272 271 269 265 261 256 251 249 250 253 255 254 252 251 253 257 261 264 267 272 277 279 280 280 281 284 289 296 297 295 298 303 306
246 240 237 235 230 231 238 246 252 256 259 261 262 262 261 259 255 251 250 250 249 248 248 246 246 246 247 249 249 249 249 250 250 252 255 258 258 257 257 256 254 255 257 261 265 269 271 273 274 274 273 271 270 269 268 265 261 256 251 248 249 252 254 256 255 254 254 257 262 266 270 274 278 280 281 281 282 284 291 299 300 297 298 302 304
248 243 239 238 235 234 239 245 249 255 261 263 263 262 260 259 257 252 250 249 249 248 248 247 246 246 246 247 248 249 249 249 250 251 253 256 256 255 254 254 253 253 255 258 262 266 270 272 273 274 272 271 270 269 267 266 262 258 252 247 247 249 252 256 258 257 257 259 263 269 275 280 282 284 286 287 286 288 293 297 298 297 299 302 304
250 246 241 239 238 237 240 245 248 253 259 262 262 260 259 259 258 254 251 250 249 249 248 249 248 247 246 246 247 248 249 248 248 249 250 252 254 253 252 250 250 251 253 256 260 263 267 269 271 273 272 271 271 269 268 267 264 260 257 251 247 248 251 257 260 262 263 264 267 271 276 280 282 285 287 288 288 291 293 295 297 298 300 304 306
249 247 244 242 241 241 243 245 248 252 256 260 260 259 258 259 258 256 253 250 250 251 250 249 249 248 246 246 246 246 247 247 245 246 247 249 251 252 251 248 246 248 251 254 258 260 263 266 268 271 273 273 272 271 269 268 266 264 262 257 253 251 254 259 265 268 271 271 273 276 278 279 282 284 284 285 286 288 290 293 296 297 300 303 304
249 249 247 246 245 245 247 248 249 251 254 257 258 258 257 258 257 255 252 249 249 251 251 250 249 248 247 246 245 245 245 245 244 244 245 248 249 250 248 245 244 246 248 252 255 258 261 264 267 272 275 275 273 270 267 266 266 265 263 262 260 260 260 264 269 274 276 276 278 280 281 282 283 284 285 287 288 286 287 291 293 294 297 300 301
249 251 250 249 248 249 251 251 250 251 253 255 256 256 256 256 255 252 248 246 246 250 251 250 248 247 246 245 244 243 242 242 242 242 243 245 246 246 245 243 243 245 248 251 254 258 261 266 270 274 275 274 271 268 266 265 266 266 266 266 266 265 266 268 272 274 276 278 281 283 283 282 282 283 286 289 288 287 289 292 293 295 298 300 302
247 250 251 250 249 250 252 252 250 250 253 254 254 254 254 254 252 248 243 241 242 246 249 248 246 245 244 243 241 240 240 239 238 238 239 240 242 243 242 241 242 245 249 251 255 260 265 269 270 270 269 269 270 269 268 268 267 267 267 269 269 269 269 271 272 272 274 277 280 281 280 279 279 282 285 286 285 286 290 292 294 296 298 300 303
244 248 250 250 249 249 251 252 251 251 253 253 253 252 251 250 248 244 239 237 239 243 245 245 244 242 240 239 237 236 235 234 233 233 234 236 238 240 241 242 243 246 250 255 260 264 267 266 264 264 266 268 270 273 273 272 270 270 269 269 270 271 272 273 272 272 273 274 275 274 274 275 279 282 284 284 285 288 291 293 294 295 296 298 301
243 245 247 248 248 248 249 250 251 251 251 252 251 250 248 248 245 241 236 235 237 240 241 241 241 239 237 236 234 233 232 231 230 230 232 234 236 239 242 245 247 249 253 260 263 262 259 258 260 263 265 267 271 275 278 278 279 280 279 278 278 276 276 275 275 274 274 272 271 271 273 277 281 282 283 285 288 291 292 292 292 294 296 298 300
240 242 243 244 246 246 246 248 250 251 251 250 249 248 247 246 243 239 236 235 236 238 239 239 238 237 235 234 233 232 232 232 230 230 232 235 237 241 245 249 252 254 255 256 255 254 254 257 261 265 268 271 275 279 284 287 290 292 293 294 292 289 286 284 281 278 276 275 275 277 281 284 285 285 286 287 289 290 290 291 292 294 296 298 300
236 238 239 241 243 244 244 246 247 249 250 248 246 245 245 243 241 238 236 235 235 236 237 236 236 234 234 233 233 234 235 236 235 234 235 239 242 246 249 252 252 252 250 248 251 256 261 266 270 274 276 278 280 282 285 287 289 292 294 294 294 292 290 289 287 284 284 285 287 291 293 292 290 288 287 287 287 287 288 290 292 294 295 297 299
233 235 236 238 239 241 241 243 245 247 247 245 242 242 242 241 240 238 235 234 234 234 234 234 234 234 234 235 236 238 239 241 241 240 239 241 244 246 248 249 248 248 249 251 255 261 266 270 272 274 276 277 278 279 281 282 283 285 286 287 287 286 285 287 289 291 293 295 295 294 292 289 286 285 284 286 289 289 288 287 290 292 294 295 296
231 232 233 234 236 238 239 240 243 244 245 242 239 238 239 239 238 236 233 232 233 233 233 234 233 234 236 236 238 240 241 242 243 242 238 238 242 243 244 245 248 251 255 258 260 261 263 265 267 269 272 274 275 276 277 278 279 279 280 282 283 283 285 288 290 291 292 291 288 285 283 282 281 279 279 281 283 284 283 285 288 291 291 292 294
229 230 231 231 233 236 238 239 240 242 242 239 235 234 235 236 236 234 232 232 233 233 233 233 232 234 236 236 237 239 240 241 241 240 237 236 239 241 243 245 250 254 257 260 260 261 261 262 264 267 270 272 274 275 275 276 278 279 280 281 282 283 286 287 286 285 283 281 279 278 278 279 278 274 272 274 276 278 280 283 285 286 287 290 292
227 227 228 229 230 233 234 235 237 238 238 235 233 233 234 234 235 234 232 233 235 234 232 232 232 234 236 235 235 237 240 242 243 243 241 240 241 244 246 249 252 255 259 262 264 265 266 268 269 270 272 273 274 274 275 277 279 280 281 282 283 284 285 285 284 284 283 283 284 283 282 280 279 276 273 273 276 278 280 281 281 283 285 288 291
227 224 224 224 226 230 232 232 233 234 234 231 230 232 233 233 234 234 233 234 235 235 234 233 233 234 236 236 237 239 240 243 245 246 247 247 248 250 253 254 256 259 261 263 264 264 266 269 271 272 272 273 274 275 276 279 281 282 282 284 285 286 286 287 288 288 287 287 289 289 287 284 281 277 274 273 275 277 278 280 282 284 287 290 292
231 228 225 223 221 223 227 229 229 230 230 228 228 231 232 231 232 233 233 235 236 236 236 236 236 237 238 239 241 243 243 245 246 248 249 251 252 253 255 257 259 261 262 263 263 263 265 268 270 271 271 272 273 275 277 279 281 282 283 284 286 287 287 288 288 286 284 284 286 288 288 285 282 279 278 279 279 279 281 284 285 286 288 291 295
233 232 231 228 222 218 221 225 226 226 227 226 226 229 230 229 230 231 232 233 235 235 236 238 240 241 242 242 244 246 247 248 249 250 251 252 253 254 256 257 259 261 263 265 266 269 271 273 274 274 274 275 275 274 274 277 279 281 282 284 285 285 285 285 284 282 282 284 287 289 289 287 286 286 286 284 283 283 284 286 287 288 291 294 297
234 232 233 232 227 220 217 218 220 222 225 225 226 227 228 227 227 228 229 231 233 235 238 241 242 243 244 245 247 248 250 251 253 254 255 255 256 257 260 262 263 265 266 268 270 272 274 275 275 275 275 276 275 273 272 274 277 279 282 283 283 282 283 285 284 283 284 286 288 288 287 286 287 288 286 283 284 286 287 288 289 291 293 295 296
235 234 234 234 232 225 218 214 214 217 221 225 225 225 226 226 225 225 227 230 234 237 241 243 244 245 247 248 249 250 251 253 254 256 257 258 260 261 262 264 265 266 268 269 270 271 271 271 271 272 271 272 272 272 272 274 276 278 279 278 278 280 284 287 285 282 283 287 289 288 286 284 285 287 285 284 286 288 289 290 292 293 294 295 296
236 237 235 232 231 226 220 214 212 213 217 222 224 225 227 227 227 226 228 232 235 238 241 244 245 248 251 252 253 253 253 253 253 255 256 258 260 262 262 262 263 264 265 267 267 267 268 268 269 269 270 270 270 271 271 271 272 273 273 274 275 279 284 286 284 282 284 287 289 288 285 284 284 285 284 284 286 288 289 290 291 292 294 295 297
233 236 236 234 231 228 222 216 213 212 215 221 225 227 228 229 228 229 231 234 236 239 242 245 247 250 252 254 254 253 254 254 254 254 255 256 258 260 261 261 262 262 263 264 264 265 266 267 267 267 267 267 267 267 267 268 269 270 271 274 277 279 281 282 282 282 283 285 286 286 284 283 283 282 282 283 286 288 289 290 290 292 294 296 298
230 231 234 235 233 229 225 220 216 215 218 225 229 231 231 232 231 231 233 235 237 240 243 246 249 252 253 254 254 254 255 255 255 255 255 256 257 259 261 261 261 262 262 263 263 263 263 264 263 264 265 266 267 266 266 267 269 271 273 275 277 278 280 281 280 280 282 284 284 283 280 279 280 281 283 284 286 288 290 291 292 293 295 297 298
231 229 227 227 227 227 226 222 218 218 221 225 230 233 235 234 234 235 236 238 239 241 245 247 250 252 253 253 254 255 255 256 256 256 257 257 258 259 260 260 261 262 261 261 261 261 260 261 262 264 265 266 266 266 267 268 270 272 274 276 276 277 278 279 278 278 280 280 280 278 276 276 279 282 283 284 286 288 290 292 293 294 295 296 297
234 231 226 222 223 228 229 224 219 218 220 223 227 232 233 232 234 235 237 239 241 242 245 246 248 250 252 253 255 256 257 257 257 256 257 257 258 259 260 262 262 262 261 260 259 258 257 258 260 262 264 265 265 267 270 272 273 275 275 276 276 276 275 276 277 277 278 278 277 277 278 280 283 283 283 283 285 287 289 290 291 292 293 295 295
234 234 231 227 227 230 232 228 221 218 218 221 225 228 230 231 235 237 238 239 241 242 244 245 247 250 253 255 257 258 258 258 258 257 257 258 259 260 262 262 261 260 260 259 259 260 260 261 262 264 265 267 269 271 273 274 275 276 277 277 277 276 275 276 277 277 278 278 278 279 280 282 284 283 281 281 283 286 288 289 291 292 293 293 293
233 235 237 237 236 235 235 232 227 223 221 220 222 225 228 231 235 236 237 238 241 243 245 248 251 254 257 259 260 260 260 261 261 260 260 260 260 261 262 261 261 262 262 262 263 264 266 267 268 268 269 271 273 274 275 276 276 276 276 276 276 276 276 276 276 276 276 277 277 279 280 281 282 282 282 283 285 287 288 290 291 292 292 290 289
232 235 238 240 241 240 238 234 230 229 227 225 223 225 227 230 233 235 237 240 242 245 248 252 256 259 261 262 262 263 263 264 265 265 265 264 264 265 265 265 266 267 268 268 268 268 269 270 270 270 271 272 273 275 276 276 275 275 276 276 276 277 277 277 277 278 278 279 279 280 280 281 282 283 284 285 286 287 288 290 290 290 289 288 288
232 234 237 240 242 243 242 238 233 230 229 228 227 227 227 228 230 234 238 241 244 247 251 255 259 262 263 264 265 265 266 266 267 268 269 269 269 270 271 271 270 270 270 271 272 273 273 273 271 270 270 270 271 272 274 275 275 275 275 275 276 277 277 278 279 279 279 279 279 279 280 281 283 284 284 285 286 287 288 288 288 287 288 290 291
233 233 235 237 240 243 243 241 237 233 230 228 228 228 227 226 228 232 237 242 245 249 252 255 258 260 263 264 265 266 267 267 267 268 269 270 271 272 273 273 272 271 271 271 272 273 274 273 272 271 271 270 270 271 272 273 273 274 274 274 275 277 278 279 279 279 279 279 280 281 282 283 284 284 285 286 287 286 285 283 283 285 289 291 292
236 236 236 239 241 243 243 242 240 238 235 231 229 230 231 230 230 233 237 241 245 247 250 252 254 255 257 260 262 264 266 266 267 267 268 269 270 271 271 271 271 271 271 270 270 270 271 271 272 272 272 273 273 274 274 273 273 273 274 275 276 278 279 279 280 280 281 282 283 284 284 285 285 286 287 287 285 283 280 281 283 287 290 292 293
239 240 242 244 245 246 247 245 243 242 240 235 232 232 234 234 234 237 242 244 246 247 249 250 251 252 253 255 257 260 262 264 265 267 268 268 268 268 269 269 269 270 270 270 270 269 269 270 271 272 273 275 275 276 275 274 274 274 274 275 277 278 279 279 280 280 281 282 283 283 284 284 285 286 287 286 283 281 280 282 285 290 292 292 292
240 242 243 245 247 249 250 249 248 247 243 238 234 234 235 236 237 241 245 247 248 249 250 252 253 253 253 254 256 258 260 262 264 266 268 269 268 267 267 268 269 270 270 270 271 271 270 270 270 271 272 273 274 275 274 272 272 274 275 276 276 277 278 279 279 280 280 281 281 282 282 283 284 285 285 284 281 279 279 281 286 289 291 290 290
239 241 243 244 247 248 249 251 253 249 242 237 237 239 240 240 242 244 246 248 248 249 251 253 254 254 255 256 257 258 260 261 263 265 268 269 268 268 268 269 270 270 271 271 272 272 272 272 271 271 270 271 273 273 271 269 271 274 275 276 276 277 278 279 280 280 281 281 280 279 279 280 282 283 283 281 279 277 279 282 286 288 289 289 289
Height
5923 5925 5927 5929 5930 5932 5934 5936 5937 5938 5939 5941 5942 5943 5944 5945 5947 5948 5949 5951 5952 5953 5954 5956 5957 5958 5959 5960 5961 5961 5962 5962 5963 5963 5964 5965 5965 5966 5966 5966 5966 5967 5967 5967 5967 5967 5967 5968 5968 5968 5968 5968 5968 5968 5969 5969 5970 5971 5971 5972 5972 5973 5973 5974 5974 5974 5975 5975 5975 5975 5975 5975 5976 5976 5975 5975 5974 5973 5972 5971 5970 5970 5969 5968 5966
5921 5923 5925 5927 5929 5931 5932 5934 5936 5937 5938 5940 5941 5942 5944 5945 5946 5947 5949 5950 5951 5952 5953 5955 5956 5957 5958 5959 5960 5961 5962 5962 5963 5963 5963 5964 5965 5965 5966 5966 5966 5966 5966 5967 5967 5967 5968 5968 5968 5968 5968 5968 5968 5969 5969 5969 5970 5971 5972 5972 5973 5973 5974 5974 5974 5975 5975 5975 5975 5975 5975 5976 5976 5975 5975 5974 5974 5973 5972 5971 5970 5970 5969 5968 5966
5919 5921 5923 5925 5927 5929 5930 5932 5934 5936 5937 5939 5941 5942 5943 5944 5945 5946 5948 5949 5950 5951 5952 5954 5955 5956 5957 5958 5960 5960 5961 5962 5962 5963 5963 5964 5964 5965 5965 5966 5966 5966 5966 5967 5967 5967 5968 5968 5968 5968 5968 5968 5969 5969 5969 5970 5971 5971 5972 5973 5973 5973 5974 5974 5974 5974 5975 5975 5975 5975 5975 5975 5975 5975 5975 5974 5974 5973 5972 5971 5970 5969 5968 5967 5966
5918 5919 5921 5923 5925 5926 5928 5931 5933 5935 5937 5938 5940 5941 5942 5943 5944 5946 5947 5948 5949 5950 5951 5953 5954 5955 5956 5958 5959 5960 5961 5962 5962 5963 5963 5964 5965 5965 5965 5966 5966 5966 5967 5967 5967 5967 5968 5968 5968 5968 5968 5968 5969 5969 5969 5970 5971 5971 5972 5973 5973 5973 5974 5974 5974 5974 5974 5974 5975 5975 5975 5975 5975 5975 5974 5974 5973 5973 5972 5971 5970 5969 5967 5966 5964
5916 5917 5919 5920 5923 5925 5927 5929 5931 5933 5935 5937 5938 5939 5941 5942 5944 5945 5946 5947 5948 5949 5951 5952 5953 5954 5956 5957 5958 5959 5960 5961 5962 5963 5963 5964 5964 5965 5965 5966 5966 5966 5967 5967 5967 5967 5968 5968 5969 5969 5968 5968 5969 5969 5969 5970 5970 5971 5972 5972 5973 5973 5973 5974 5974 5974 5974 5974 5974 5975 5975 5975 5974 5974 5973 5972 5972 5971 5971 5970 5969 5968 5966 5965 5963
5915 5916 5917 5919 5921 5923 5925 5927 5929 5931 5933 5935 5936 5937 5939 5941 5942 5944 5945 5947 5948 5949 5950 5951 5953 5954 5955 5956 5957 5959 5960 5961 5962 5962 5963 5963 5964 5965 5965 5965 5966 5966 5966 5967 5967 5967 5967 5968 5968 5969 5968 5968 5968 5968 5969 5969 5970 5971 5971 5972 5972 5972 5973 5973 5973 5973 5973 5973 5973 5974 5974 5974 5974 5973 5973 5971 5971 5970 5970 5969 5968 5967 5965 5964 5962
5913 5914 5916 5917 5919 5921 5922 5924 5926 5928 5930 5932 5934 5935 5937 5939 5941 5942 5944 5945 5947 5948 5949 5950 5952 5952 5953 5955 5956 5958 5959 5960 5961 5962 5962 5963 5963 5964 5964 5965 5965 5966 5966 5966 5967 5967 5967 5967 5968 5968 5968 5968 5968 5968 5968 5968 5969 5970 5971 5971 5971 5971 5972 5972 5972 5972 5972 5972 5972 5972 5973 5973 5973 5972 5972 5971 5970 5970 5969 5968 5967 5966 5965 5963 5962
5911 5913 5914 5916 5918 5919 5920 5921 5923 5925 5927 5929 5931 5933 5935 5937 5939 5940 5941 5943 5945 5947 5948 5949 5950 5951 5952 5954 5955 5957 5958 5959 5960 5961 5961 5962 5962 5963 5964 5964 5964 5965 5965 5966 5966 5966 5966 5967 5967 5967 5968 5968 5967 5967 5967 5967 5968 5969 5969 5970 5970 5970 5971 5971 5971 5971 5971 5971 5971 5971 5971 5971 5971 5971 5971 5970 5969 5968 5967 5967 5966 5965 5965 5963 5961
5909 5911 5913 5914 5916 5917 5917 5919 5921 5923 5925 5927 5929 5931 5933 5935 5937 5938 5939 5941 5943 5944 5946 5947 5948 5950 5951 5952 5954 5955 5957 5958 5959 5959 5960 5961 5961 5962 5962 5963 5963 5964 5964 5965 5965 5965 5965 5966 5966 5966 5967 5967 5967 5966 5966 5966 5967 5967 5968 5968 5969 5969 5969 5970 5970 5970 5970 5970 5970 5970 5970 5970 5970 5970 5969 5968 5968 5967 5966 5965 5965 5965 5964 5962 5960
5907 5909 5911 5912 5913 5915 5916 5917 5919 5920 5922 5924 5926 5928 5930 5932 5934 5936 5937 5938 5940 5942 5943 5945 5946 5948 5949 5950 5952 5954 5955 5956 5957 5958 5958 5959 5960 5961 5961 5962 5962 5963 5963 5964 5964 5964 5964 5964 5965 5965 5965 5966 5966 5966 5965 5965 5965 5966 5966 5967 5967 5967 5968 5968 5968 5969 5969 5969 5969 5969 5969 5969 5968 5968 5967 5967 5966 5966 5965 5964 5964 5963 5962 5961 5959
5905 5907 5908 5910 5911 5912 5914 5915 5917 5918 5920 5921 5923 5925 5927 5929 5931 5933 5935 5935 5937 5939 5940 5942 5944 5945 5946 5948 5950 5952 5953 5954 5955 5956 5957 5958 5959 5959 5960 5960 5961 5962 5962 5962 5963 5963 5963 5963 5963 5964 5964 5964 5964 5964 5964 5964 5964 5964 5965 5965 5965 5966 5966 5966 5967 5968 5968 5968 5968 5968 5968 5968 5967 5966 5965 5965 5964 5964 5963 5962 5962 5961 5960 5959 5958
5903 5905 5906 5908 5909 5910 5912 5913 5915 5916 5918 5919 5920 5922 5924 5926 5928 5930 5932 5933 5934 5935 5937 5939 5941 5942 5944 5945 5947 5949 5951 5952 5953 5954 5954 5956 5957 5958 5958 5959 5959 5960 5961 5961 5961 5961 5962 5962 5962 5962 5962 5963 5963 5963 5963 5963 5963 5963 5963 5963 5964 5964 5964 5964 5965 5965 5966 5966 5966 5966 5967 5966 5965 5964 5963 5963 5962 5961 5961 5960 5959 5959 5958 5957 5956
5901 5903 5905 5906 5907 5909 5910 5911 5913 5914 5916 5917 5918 5919 5921 5923 5925 5927 5929 5930 5931 5932 5935 5937 5938 5940 5941 5942 5944 5946 5947 5949 5950 5951 5952 5953 5955 5956 5957 5957 5958 5958 5959 5959 5959 5960 5960 5960 5960 5960 5960 5961 5961 5961 5962 5962 5962 5962 5961 5962 5962 5962 5962 5962 5963 5963 5964 5964 5964 5964 5964 5964 5963 5962 5961 5961 5960 5959 5958 5958 5957 5957 5956 5955 5953
5898 5900 5902 5904 5906 5907 5908 5909 5910 5912 5914 5915 5916 5917 5918 5920 5922 5923 5925 5927 5928 5930 5932 5933 5935 5937 5938 5940 5941 5942 5944 5946 5947 5948 5949 5951 5952 5953 5955 5955 5956 5956 5956 5957 5957 5958 5958 5958 5958 5958 5958 5959 5959 5960 5960 5960 5960 5960 5960 5960 5960 5959 5960 5960 5960 5961 5961 5962 5962 5962 5961 5962 5961 5960 5959 5958 5958 5957 5956 5956 5955 5955 5954 5953 5951
5896 5898 5900 5902 5904 5905 5906 5907 5908 5910 5912 5913 5914 5915 5915 5917 5918 5920 5921 5923 5925 5926 5928 5930 5932 5933 5935 5937 5938 5939 5941 5943 5944 5945 5947 5948 5950 5951 5952 5953 5954 5954 5954 5954 5955 5955 5956 5956 5957 5957 5956 5956 5957 5957 5958 5958 5958 5958 5958 5958 5957 5957 5957 5957 5958 5958 5959 5959 5959 5959 5959 5959 5959 5958 5957 5956 5955 5955 5954 5953 5952 5952 5951 5950 5949
5893 5895 5897 5899 5902 5903 5904 5905 5906 5907 5909 5911 5912 5912 5913 5914 5916 5917 5918 5920 5921 5923 5924 5926 5928 5930 5931 5933 5935 5937 5938 5940 5941 5942 5943 5945 5947 5949 5950 5951 5951 5951 5951 5952 5952 5953 5953 5954 5955 5955 5955 5954 5954 5955 5956 5956 5956 5956 5956 5956 5956 5955 5955 5955 5955 5955 5956 5956 5956 5956 5956 5956 5956 5955 5955 5954 5954 5953 5952 5951 5950 5949 5948 5947 5946
5890 5893 5894 5897 5899 5901 5902 5903 5904 5905 5907 5908 5909 5910 5911 5912 5913 5914 5915 5916 5918 5920 5921 5922 5924 5926 5927 5929 5931 5933 5934 5936 5938 5939 5940 5942 5944 5946 5947 5948 5948 5948 5948 5949 5949 5950 5951 5951 5952 5952 5953 5952 5952 5952 5953 5953 5953 5953 5953 5953 5953 5953 5953 5952 5952 5952 5953 5953 5953 5953 5953 5953 5953 5953 5952 5952 5952 5951 5951 5950 5948 5947 5946 5944 5943
5887 5890 5892 5894 5896 5898 5899 5901 5902 5902 5904 5906 5907 5907 5908 5909 5910 5911 5912 5913 5914 5916 5917 5919 5920 5922 5924 5925 5927 5929 5931 5933 5935 5936 5937 5939 5941 5943 5944 5945 5945 5945 5945 5946 5946 5947 5948 5949 5949 5950 5950 5950 5949 5950 5950 5951 5951 5951 5951 5951 5951 5951 5950 5950 5949 5949 5950 5950 5950 5950 5951 5951 5951 5951 5950 5949 5949 5949 5948 5947 5946 5945 5943 5942 5941
5885 5887 5889 5891 5893 5895 5896 5898 5899 5900 5901 5903 5904 5905 5905 5906 5907 5908 5909 5910 5911 5913 5914 5915 5917 5919 5920 5922 5923 5925 5927 5929 5931 5933 5934 5935 5937 5940 5941 5942 5942 5943 5943 5943 5944 5944 5945 5946 5946 5947 5947 5947 5947 5947 5947 5948 5948 5948 5948 5948 5948 5948 5947 5947 5947 5947 5947 5947 5948 5948 5949 5949 5949 5948 5947 5946 5946 5946 5945 5944 5943 5942 5941 5940 5938
5882 5884 5886 5887 5889 5891 5893 5895 5896 5898 5899 5900 5901 5902 5902 5903 5904 5905 5906 5907 5908 5909 5911 5912 5914 5915 5917 5918 5920 5922 5924 5926 5928 5929 5930 5932 5933 5936 5937 5939 5939 5940 5940 5940 5941 5942 5942 5943 5943 5944 5944 5944 5944 5944 5944 5944 5944 5944 5944 5945 5945 5945 5945 5944 5945 5945 5945 5945 5946 5946 5947 5947 5947 5946 5945 5944 5943 5943 5941 5940 5939 5938 5937 5936 5935
5878 5880 5882 5884 5886 5888 5890 5892 5893 5894 5895 5897 5898 5899 5899 5900 5901 5902 5903 5904 5905 5907 5908 5909 5911 5912 5914 5915 5917 5919 5921 5923 5924 5926 5927 5928 5930 5932 5934 5935 5936 5936 5937 5937 5938 5939 5939 5940 5940 5941 5941 5941 5941 5941 5941 5941 5941 5941 5941 5941 5942 5942 5942 5942 5942 5943 5943 5943 5944 5944 5945 5945 5944 5943 5942 5941 5940 5940 5938 5937 5936 5934 5933 5932 5931
5873 5876 5879 5880 5882 5884 5886 5888 5890 5891 5892 5893 5895 5896 5896 5897 5898 5899 5900 5901 5902 5904 5905 5906 5908 5909 5910 5912 5914 5916 5917 5919 5921 5922 5923 5925 5926 5928 5930 5932 5932 5933 5934 5934 5935 5935 5936 5937 5937 5938 5938 5938 5939 5939 5939 5938 5938 5938 5937 5937 5938 5939 5939 5940 5940 5941 5940 5940 5941 5941 5941 5941 5940 5938 5937 5936 5936 5935 5934 5933 5932 5930 5929 5928 5927
5869 5872 5874 5877 5879 5881 5882 5884 5886 5887 5888 5890 5891 5892 5893 5894 5895 5896 5897 5898 5899 5900 5902 5903 5904 5906 5907 5909 5911 5913 5914 5916 5917 5919 5920 5921 5923 5924 5926 5928 5929 5930 5930 5931 5932 5932 5933 5934 5935 5935 5935 5935 5935 5936 5936 5935 5935 5935 5934 5935 5936 5936 5936 5937 5937 5937 5937 5937 5937 5937 5937 5936 5935 5933 5933 5932 5930 5929 5928 5928 5927 5926 5925 5923 5922
5865 5867 5870 5873 5875 5877 5878 5880 5882 5883 5884 5886 5888 5889 5890 5891 5892 5893 5893 5894 5896 5897 5899 5900 5901 5903 5904 5906 5907 5909 5910 5912 5914 5915 5916 5918 5919 5921 5922 5924 5925 5926 5927 5928 5928 5929 5930 5931 5932 5932 5932 5932 5932 5932 5933 5933 5932 5932 5932 5932 5933 5933 5933 5934 5934 5934 5933 5933 5933 5932 5931 5930 5929 5929 5928 5927 5925 5925 5925 5924 5923 5922 5920 5919 5917
5861 5863 5866 5868 5871 5873 5875 5877 5878 5879 5881 5882 5884 5885 5886 5887 5888 5889 5890 5891 5893 5894 5896 5897 5898 5900 5901 5902 5904 5905 5907 5909 5910 5912 5913 5914 5916 5917 5919 5920 5922 5923 5924 5925 5926 5927 5928 5928 5928 5929 5929 5929 5929 5929 5930 5930 5929 5929 5929 5929 5929 5930 5930 5930 5930 5930 5929 5929 5928 5926 5925 5925 5926 5926 5924 5922 5922 5923 5922 5920 5920 5919 5917 5915 5914
5857 5859 5862 5864 5866 5868 5870 5872 5874 5875 5877 5879 5880 5881 5882 5883 5885 5886 5887 5888 5890 5891 5893 5894 5895 5896 5898 5899 5901 5902 5903 5905 5907 5908 5909 5911 5912 5914 5915 5917 5919 5920 5921 5922 5923 5924 5925 5925 5925 5926 5926 5926 5926 5926 5926 5926 5926 5926 5926 5926 5926 5926 5926 5926 5925 5925 5924 5923 5921 5920 5921 5922 5923 5923 5922 5921 5921 5920 5919 5917 5917 5915 5914 5912 5911
5852 5855 5857 5859 5861 5863 5866 5868 5870 5871 5873 5875 5876 5877 5878 5880 5881 5882 5883 5884 5886 5888 5890 5891 5892 5893 5895 5896 5897 5898 5900 5902 5904 5905 5906 5908 5910 5911 5913 5915 5916 5918 5919 5920 5921 5921 5922 5922 5923 5923 5924 5924 5924 5924 5924 5924 5924 5923 5923 5923 5922 5922 5922 5921 5920 5919 5918 5917 5917 5917 5919 5921 5921 5921 5920 5919 5919 5917 5915 5914 5913 5912 5911 5909 5907
5847 5850 5852 5854 5856 5858 5861 5863 5865 5867 5869 5870 5871 5873 5874 5876 5877 5879 5880 5881 5883 5885 5886 5888 5889 5890 5891 5892 5894 5895 5897 5899 5901 5903 5904 5906 5907 5909 5910 5912 5914 5915 5916 5917 5918 5918 5919 5920 5920 5921 5921 5921 5921 5922 5922 5921 5921 5921 5920 5920 5919 5918 5918 5917 5915 5914 5915 5915 5916 5917 5919 5919 5918 5917 5916 5915 5914 5913 5911 5910 5908 5907 5906 5905 5903
5841 5844 5846 5848 5851 5853 5856 5858 5860 5861 5863 5865 5867 5869 5871 5872 5874 5875 5876 5877 5879 5881 5883 5884 5886 5887 5888 5889 5891 5893 5895 5896 5898 5900 5902 5904 5905 5906 5908 5910 5911 5912 5913 5914 5914 5915 5916 5917 5917 5917 5918 5918 5918 5919 5919 5918 5918 5917 5917 5916 5915 5914 5914 5913 5912 5912 5914 5915 5916 5915 5914 5913 5912 5911 5910 5910 5909 5909 5907 5905 5904 5903 5901 5900 5898
5836 5838 5840 5843 5845 5847 5850 5852 5854 5856 5858 5860 5863 5865 5866 5868 5869 5871 5872 5874 5875 5877 5879 5880 5882 5883 5885 5887 5889 5890 5892 5894 5895 5898 5900 5901 5902 5904 5905 5907 5908 5909 5909 5910 5911 5912 5913 5914 5914 5914 5914 5915 5915 5915 5915 5915 5914 5914 5913 5912 5911 5910 5910 5911 5911 5911 5912 5911 5909 5907 5906 5904 5903 5903 5903 5904 5904 5904 5902 5900 5899 5897 5896 5895 5893
5830 5832 5834 5836 5839 5841 5844 5846 5848 5850 5852 5855 5858 5859 5861 5863 5865 5867 5868 5870 5871 5873 5875 5877 5878 5880 5881 5884 5886 5888 5889 5891 5892 5894 5897 5898 5899 5901 5902 5903 5904 5905 5905 5906 5907 5909 5909 5910 5910 5910 5911 5911 5911 5911 5910 5910 5910 5909 5908 5908 5907 5906 5906 5907 5907 5906 5904 5902 5899 5898 5897 5897 5896 5896 5896 5897 5898 5897 5896 5895 5894 5892 5891 5890 5888
5823 5825 5827 5830 5833 5834 5836 5839 5841 5843 5846 5849 5852 5854 5855 5858 5860 5862 5864 5866 5867 5869 5871 5873 5875 5876 5878 5881 5883 5885 5886 5888 5889 5891 5893 5895 5896 5897 5898 5899 5900 5901 5901 5902 5904 5905 5905 5906 5907 5906 5906 5907 5907 5906 5905 5905 5904 5904 5903 5902 5902 5901 5901 5900 5900 5899 5897 5895 5894 5893 5893 5892 5891 5891 5891 5891 5891 5890 5889 5889 5888 5887 5886 5884 5882
5814 5815 5816 5820 5823 5827 5830 5832 5835 5837 5840 5844 5846 5848 5850 5852 5855 5857 5860 5861 5863 5865 5867 5869 5871 5873 5875 5877 5879 5881 5883 5884 5886 5888 5889 5891 5893 5893 5894 5895 5896 5896 5897 5899 5900 5901 5901 5902 5903 5903 5902 5902 5902 5901 5900 5900 5899 5898 5898 5897 5896 5895 5894 5894 5893 5892 5891 5890 5889 5889 5888 5887 5887 5886 5885 5884 5884 5883 5883 5883 5882 5881 5880 5878 5877
5809 5810 5810 5810 5812 5817 5822 5827 5830 5832 5835 5839 5841 5842 5844 5847 5849 5852 5854 5857 5859 5861 5863 5866 5868 5870 5872 5874 5876 5877 5879 5881 5882 5884 5885 5887 5888 5889 5890 5891 5891 5892 5893 5894 5895 5897 5897 5898 5898 5898 5898 5898 5897 5896 5895 5895 5893 5893 5892 5892 5891 5890 5888 5887 5886 5885 5884 5883 5882 5881 5881 5881 5880 5880 5879 5878 5877 5877 5877 5877 5877 5876 5874 5873 5871
5803 5807 5810 5811 5811 5811 5814 5820 5825 5828 5829 5833 5835 5837 5838 5841 5843 5846 5848 5851 5854 5856 5859 5862 5864 5866 5868 5870 5872 5873 5875 5877 5878 5879 5881 5882 5884 5884 5885 5886 5887 5888 5889 5890 5890 5891 5892 5892 5893 5893 5892 5892 5892 5890 5890 5889 5888 5887 5887 5886 5885 5884 5882 5881 5880 5879 5878 5877 5876 5875 5875 5874 5874 5874 5873 5872 5872 5872 5872 5871 5870 5869 5868 5867 5865
5798 5803 5806 5809 5811 5811 5808 5810 5816 5820 5823 5827 5829 5831 5833 5835 5836 5839 5842 5844 5848 5852 5855 5857 5859 5861 5863 5866 5867 5869 5871 5872 5873 5874 5876 5877 5878 5879 5879 5881 5882 5883 5884 5884 5885 5886 5886 5886 5886 5886 5886 5886 5885 5884 5884 5884 5883 5882 5881 5880 5879 5878 5877 5876 5875 5875 5875 5874 5873 5872 5871 5870 5869 5868 5868 5867 5867 5866 5865 5864 5864 5863 5862 5861 5859
5796 5799 5801 5804 5809 5810 5808 5805 5807 5811 5815 5820 5823 5824 5825 5826 5827 5831 5836 5841 5845 5849 5851 5852 5854 5856 5858 5861 5863 5865 5866 5867 5868 5869 5870 5871 5872 5872 5873 5874 5876 5877 5877 5878 5879 5880 5880 5879 5879 5880 5880 5880 5879 5879 5879 5878 5877 5876 5875 5874 5873 5873 5872 5871 5870 5870 5870 5870 5869 5868 5867 5865 5864 5863 5863 5862 5861 5860 5859 5859 5858 5858 5856 5855 5853
5791 5794 5796 5799 5803 5806 5806 5804 5802 5802 5805 5811 5817 5818 5818 5821 5826 5831 5835 5839 5842 5844 5845 5847 5849 5851 5854 5856 5858 5859 5860 5862 5863 5864 5865 5865 5865 5866 5866 5868 5869 5870 5871 5872 5873 5873 5873 5873 5873 5873 5873 5873 5873 5873 5872 5871 5870 5869 5869 5868 5868 5868 5868 5866 5866 5865 5864 5864 5863 5862 5861 5860 5859 5858 5857 5856 5855 5854 5854 5853 5853 5852 5851 5849 5848
5786 5788 5790 5794 5797 5799 5801 5802 5802 5801 5802 5807 5813 5814 5816 5821 5828 5831 5833 5835 5837 5838 5840 5842 5844 5847 5849 5851 5852 5853 5854 5856 5857 5858 5858 5859 5859 5859 5860 5861 5863 5864 5865 5866 5866 5867 5867 5867 5866 5866 5866 5865 5865 5864 5864 5864 5864 5864 5863 5863 5864 5863 5862 5861 5860 5859 5858 5859 5858 5857 5856 5854 5853 5852 5852 5851 5850 5849 5848 5847 5847 5846 5845 5843 5841
5780 5782 5785 5788 5792 5797 5800 5802 5801 5799 5801 5806 5811 5812 5814 5820 5825 5827 5828 5830 5832 5833 5835 5837 5840 5842 5844 5845 5846 5848 5849 5850 5851 5851 5852 5853 5853 5854 5855 5856 5857 5858 5859 5860 5860 5861 5860 5860 5859 5859 5859 5858 5857 5857 5857 5858 5859 5858 5858 5858 5858 5858 5857 5856 5855 5853 5853 5853 5852 5852 5851 5849 5848 5846 5846 5845 5844 5843 5842 5841 5840 5839 5838 5836 5835
5777 5778 5781 5784 5788 5794 5799 5800 5797 5795 5798 5803 5807 5809 5812 5816 5819 5821 5823 5825 5827 5829 5831 5834 5835 5837 5838 5839 5841 5842 5844 5845 5845 5846 5846 5847 5848 5849 5850 5850 5851 5853 5854 5854 5854 5854 5854 5853 5853 5852 5853 5852 5851 5851 5851 5852 5853 5853 5852 5852 5852 5852 5851 5850 5850 5849 5848 5847 5846 5846 5845 5844 5843 5841 5840 5839 5838 5837 5836 5834 5833 5831 5830 5829 5827
5772 5774 5777 5781 5784 5788 5792 5795 5793 5792 5795 5800 5803 5805 5808 5811 5813 5816 5818 5820 5822 5824 5826 5828 5829 5831 5832 5834 5836 5838 5839 5840 5840 5841 5841 5842 5842 5844 5845 5846 5847 5848 5848 5848 5848 5848 5848 5848 5848 5847 5847 5847 5846 5846 5847 5847 5848 5847 5846 5845 5845 5845 5845 5844 5844 5843 5843 5841 5840 5839 5838 5837 5836 5836 5835 5833 5831 5830 5829 5828 5826 5824 5823 5821 5820
5768 5769 5772 5777 5780 5782 5785 5788 5789 5789 5792 5796 5799 5801 5803 5806 5808 5811 5814 5815 5817 5819 5820 5822 5824 5826 5828 5830 5831 5833 5834 5834 5835 5835 5836 5837 5837 5839 5839 5840 5840 5841 5841 5841 5842 5842 5843 5843 5843 5843 5843 5842 5841 5841 5842 5842 5842 5841 5841 5840 5839 5838 5838 5838 5837 5837 5836 5835 5833 5832 5831 5830 5830 5828 5827 5826 5824 5823 5821 5820 5819 5817 5816 5814 5812
5763 5764 5767 5771 5775 5778 5780 5784 5786 5787 5789 5792 5794 5797 5799 5802 5804 5806 5809 5810 5812 5814 5816 5818 5820 5821 5823 5824 5826 5827 5828 5828 5829 5830 5831 5831 5832 5833 5833 5833 5833 5834 5835 5836 5836 5837 5838 5838 5838 5838 5838 5837 5836 5836 5836 5836 5835 5834 5834 5833 5833 5832 5832 5831 5830 5830 5829 5828 5826 5825 5824 5823 5821 5820 5819 5818 5816 5815 5814 5812 5811 5809 5807 5805 5803
5759 5761 5762 5765 5768 5772 5775 5779 5782 5783 5785 5788 5790 5793 5796 5798 5800 5802 5804 5806 5808 5810 5811 5813 5814 5816 5817 5818 5819 5820 5821 5822 5823 5823 5824 5825 5826 5826 5826 5827 5828 5829 5830 5831 5831 5831 5832 5832 5832 5832 5832 5832 5831 5830 5829 5829 5828 5827 5827 5826 5826 5825 5825 5824 5823 5822 5821 5820 5819 5818 5816 5815 5813 5812 5811 5810 5808 5807 5805 5804 5802 5801 5798 5796 5794
5755 5757 5759 5760 5762 5765 5769 5773 5776 5778 5780 5783 5785 5787 5789 5792 5795 5797 5799 5801 5803 5805 5806 5807 5808 5810 5811 5812 5813 5814 5815 5816 5817 5817 5818 5819 5820 5820 5821 5822 5823 5824 5824 5824 5825 5825 5826 5826 5826 5825 5825 5825 5824 5824 5823 5822 5821 5820 5820 5819 5818 5818 5817 5817 5816 5815 5814 5813 5812 5810 5809 5807 5806 5805 5804 5802 5800 5798 5797 5795 5794 5792 5790 5788 5786
5751 5753 5754 5755 5757 5760 5764 5767 5771 5773 5776 5778 5780 5781 5783 5785 5788 5791 5794 5796 5798 5799 5800 5802 5803 5804 5806 5807 5808 5809 5810 5810 5811 5811 5812 5813 5814 5814 5816 5816 5817 5817 5817 5818 5819 5819 5819 5819 5818 5818 5818 5817 5817 5817 5816 5815 5814 5814 5813 5812 5811 5811 5810 5810 5809 5808 5807 5805 5804 5803 5801 5800 5798 5796 5795 5793 5792 5790 5789 5787 5785 5784 5782 5780 5778
5746 5748 5749 5751 5753 5755 5759 5762 5765 5767 5770 5773 5776 5778 5779 5781 5783 5785 5787 5789 5791 5793 5795 5796 5798 5799 5800 5801 5802 5803 5804 5804 5805 5806 5806 5807 5808 5809 5809 5810 5810 5810 5810 5811 5811 5812 5812 5812 5811 5811 5811 5810 5810 5810 5809 5808 5808 5807 5807 5806 5805 5804 5803 5802 5801 5800 5798 5797 5795 5794 5793 5791 5789 5788 5786 5785 5783 5782 5781 5779 5778 5776 5774 5772 5770
5740 5742 5745 5747 5749 5751 5753 5756 5758 5761 5763 5766 5768 5770 5773 5775 5776 5778 5781 5783 5785 5787 5789 5790 5791 5793 5794 5795 5796 5797 5797 5798 5799 5799 5800 5801 5802 5803 5803 5803 5803 5804 5804 5804 5804 5805 5805 5805 5805 5804 5804 5804 5803 5803 5802 5802 5801 5800 5800 5799 5798 5797 5796 5794 5793 5792 5790 5789 5787 5786 5784 5783 5781 5779 5778 5777 5775 5774 5773 5771 5770 5768 5766 5764 5762
5734 5737 5739 5742 5744 5746 5748 5750 5752 5754 5756 5759 5761 5763 5765 5767 5769 5772 5774 5777 5779 5780 5782 5783 5785 5786 5787 5788 5789 5790 5791 5792 5792 5792 5793 5794 5795 5796 5797 5797 5797 5797 5797 5797 5798 5798 5798 5798 5798 5798 5797 5797 5797 5796 5795 5794 5793 5793 5792 5791 5790 5789 5787 5786 5785 5783 5782 5780 5779 5777 5776 5774 5773 5771 5770 5768 5767 5766 5764 5763 5761 5759 5757 5755 5753
5728 5730 5733 5736 5738 5740 5742 5745 5746 5747 5749 5752 5755 5758 5760 5762 5764 5766 5768 5770 5772 5773 5775 5776 5778 5779 5780 5781 5782 5783 5784 5785 5785 5785 5786 5786 5787 5789 5789 5790 5790 5790 5790 5790 5791 5791 5791 5791 5790 5790 5790 5789 5789 5788 5787 5786 5785 5785 5784 5783 5781 5780 5779 5777 5776 5774 5772 5771 5770 5769 5767 5766 5765 5763 5762 5760 5759 5757 5756 5754 5752 5750 5748 5745 5743